Starlink 11591

operational
NORAD ID: 63116 Int'l Des: 2025-039 Owner: SPXS Country: US Constellation: starlink
LEOCIRCULAR

关于 Starlink 11591

正在加载描述...

实时位置

正在加载3D地球...

即将过境

高度历史

Altitude vs Time

uPlot chart will show altitude changes over time

两行轨道根数

1 63116U 25039N 26034.44320905 .00300387 00000-0 22570-2 0 9997
2 63116 42.9998 82.8867 0001072 283.0975 76.9773 15.70881193 54239
Epoch: Feb 3, 2026 • Age: 11 hours

当前状态

高度 355.0 km
速度 7.70 km/s
星下点 7.60°N, 147.26°E
发射日期 Feb 27, 2025
运行时间 0.9 years
类型 internet

技术详情

分类 Payload
质量 960.00 kg
干质量 910.00 kg
总质量 960.00 kg
长度 0.30 m
直径 4.10 m
跨度 29.00 m
形状 Box + pan
制造商 SPXS
平台类型 Starlink V2MD
阶段状态 In Orbit
所有者/国家 SPXS/US

大型星座

Loading constellations...